BVX177 ENHD-ENGM

Flight info

Callsign BVX177
Flight time 0h 35m
Altitude 31000
Route ODINU DCT BOBGA DCT ADOPI
Aircraft A319/M-SDE3FGHIRWY/LB1

Departure

Time 2026-05-06 18:20
Airport Haugesund Airport, Karmøy (ENHD)

Arrival

Time 2026-05-06 18:56
Airport Oslo-Gardermoen International Airport (ENGM)
Time Latitude Longitude Altitude Speed Heading
2026-05-06 17:59 59.34450 5.21558 88 ft 0 kts 44°
2026-05-06 18:14 59.34435 5.21529 92 ft 4 kts 44°
2026-05-06 18:14 59.34417 5.21496 91 ft 1 kts 44°
2026-05-06 18:15 59.34417 5.21495 91 ft 0 kts 44°
2026-05-06 18:17 59.34417 5.21499 91 ft 1 kts 64°
2026-05-06 18:17 59.34399 5.21537 87 ft 9 kts 142°
2026-05-06 18:17 59.34323 5.21586 88 ft 14 kts 216°
2026-05-06 18:18 59.34243 5.21457 89 ft 17 kts 190°
2026-05-06 18:18 59.34145 5.21603 87 ft 20 kts 134°
2026-05-06 18:18 59.34041 5.21812 87 ft 23 kts 134°
2026-05-06 18:18 59.33929 5.22035 94 ft 22 kts 134°
2026-05-06 18:19 59.33822 5.22251 98 ft 22 kts 134°
2026-05-06 18:19 59.33764 5.22415 99 ft 8 kts 155°
2026-05-06 18:19 59.33771 5.22351 97 ft 8 kts 319°
2026-05-06 18:19 59.33786 5.22322 100 ft 0 kts 314°
2026-05-06 18:20 59.33804 5.22285 98 ft 22 kts 314°
2026-05-06 18:20 59.34083 5.21727 86 ft 92 kts 314°
2026-05-06 18:20 59.34673 5.20539 171 ft 141 kts 313°
2026-05-06 18:20 59.35371 5.19172 905 ft 141 kts 315°
2026-05-06 18:21 59.36063 5.17868 1752 ft 139 kts 317°
2026-05-06 18:21 59.36790 5.16652 2418 ft 138 kts 334°
2026-05-06 18:21 59.37732 5.16324 3012 ft 141 kts
2026-05-06 18:21 59.38677 5.17015 3528 ft 157 kts 32°
2026-05-06 18:22 59.39379 5.18890 3871 ft 188 kts 64°
2026-05-06 18:22 59.39898 5.21413 4252 ft 211 kts 64°
2026-05-06 18:22 59.40482 5.24226 4719 ft 235 kts 65°
2026-05-06 18:22 59.41134 5.27356 5321 ft 258 kts 65°
2026-05-06 18:23 59.41825 5.30675 6267 ft 267 kts 65°
2026-05-06 18:23 59.42535 5.34092 7251 ft 273 kts 65°
2026-05-06 18:23 59.43260 5.37580 8222 ft 278 kts 65°
2026-05-06 18:23 59.44001 5.41142 9190 ft 284 kts 65°
2026-05-06 18:24 59.44757 5.44777 10123 ft 291 kts 65°
2026-05-06 18:24 59.45533 5.48511 10833 ft 303 kts 65°
2026-05-06 18:24 59.46365 5.52496 11179 ft 327 kts 65°
2026-05-06 18:24 59.47260 5.56787 11462 ft 351 kts 65°
2026-05-06 18:25 59.48211 5.61363 11856 ft 369 kts 65°
2026-05-06 18:25 59.49190 5.66103 12485 ft 378 kts 65°
2026-05-06 18:25 59.50190 5.70961 13136 ft 386 kts 65°
2026-05-06 18:25 59.51193 5.75848 13768 ft 394 kts 65°
2026-05-06 18:26 59.52225 5.80898 14338 ft 401 kts 65°
2026-05-06 18:26 59.53274 5.86040 14920 ft 407 kts 65°
2026-05-06 18:26 59.54335 5.91252 15575 ft 412 kts 66°
2026-05-06 18:26 59.55409 5.96538 16229 ft 417 kts 66°
2026-05-06 18:27 59.56493 6.01888 16820 ft 422 kts 66°
2026-05-06 18:27 59.57588 6.07297 17442 ft 428 kts 66°
2026-05-06 18:27 59.58696 6.12789 18078 ft 433 kts 66°
2026-05-06 18:27 59.59815 6.18352 18687 ft 439 kts 66°
2026-05-06 18:28 59.60947 6.23980 19267 ft 443 kts 66°
2026-05-06 18:28 59.62088 6.29673 19830 ft 447 kts 66°
2026-05-06 18:28 59.63233 6.35417 20365 ft 452 kts 66°
2026-05-06 18:28 59.64389 6.41234 20926 ft 457 kts 66°
2026-05-06 18:29 59.65552 6.47106 21444 ft 461 kts 66°
2026-05-06 18:29 59.66722 6.53054 21951 ft 465 kts 66°
2026-05-06 18:29 59.67894 6.59036 22479 ft 468 kts 66°
2026-05-06 18:29 59.69126 6.65026 22999 ft 471 kts 64°
2026-05-06 18:30 59.70473 6.70851 23489 ft 473 kts 61°
2026-05-06 18:30 59.71942 6.76718 23962 ft 477 kts 59°
2026-05-06 18:30 59.73478 6.82617 24184 ft 486 kts 59°
2026-05-06 18:30 59.75032 6.88605 24554 ft 491 kts 60°
2026-05-06 18:31 59.76570 6.94684 24956 ft 495 kts 61°
2026-05-06 18:31 59.78084 7.00849 25349 ft 498 kts 62°
2026-05-06 18:31 59.79581 7.07094 25742 ft 502 kts 62°
2026-05-06 18:31 59.81073 7.13394 26125 ft 506 kts 63°
2026-05-06 18:32 59.82575 7.19749 26505 ft 509 kts 63°
2026-05-06 18:32 59.83545 7.24010 26758 ft 512 kts 67°
2026-05-06 18:32 59.84512 7.30834 27113 ft 515 kts 78°
2026-05-06 18:32 59.85276 7.37801 27500 ft 517 kts 79°
2026-05-06 18:33 59.86046 7.44808 27850 ft 520 kts 79°
2026-05-06 18:33 59.86826 7.51865 28194 ft 523 kts 79°
2026-05-06 18:33 59.87615 7.58950 28531 ft 527 kts 79°
2026-05-06 18:33 59.88415 7.66085 28878 ft 530 kts 79°
2026-05-06 18:34 59.89226 7.73259 27671 ft 530 kts 78°
2026-05-06 18:34 59.89993 7.80360 29749 ft 520 kts 79°
2026-05-06 18:34 59.90750 7.87438 29995 ft 526 kts 80°
2026-05-06 18:34 59.91562 7.94593 30195 ft 531 kts 79°
2026-05-06 18:35 59.92396 8.01782 30523 ft 533 kts 79°
2026-05-06 18:35 59.93224 8.08976 30919 ft 533 kts 79°
2026-05-06 18:35 59.94038 8.16197 31020 ft 533 kts 79°
2026-05-06 18:35 59.95062 8.23266 31017 ft 530 kts 68°
2026-05-06 18:36 59.96789 8.29717 31007 ft 527 kts 55°
2026-05-06 18:36 59.98812 8.35826 31014 ft 526 kts 54°
2026-05-06 18:36 60.02882 8.47985 31014 ft 526 kts 54°
2026-05-06 18:37 60.04917 8.54071 30844 ft 525 kts 54°
2026-05-06 18:37 60.06928 8.60106 29594 ft 534 kts 54°
2026-05-06 18:37 60.09011 8.66367 27952 ft 546 kts 54°
2026-05-06 18:37 60.11124 8.72750 26672 ft 549 kts 54°
2026-05-06 18:38 60.13218 8.79122 25633 ft 546 kts 54°
2026-05-06 18:38 60.15291 8.85482 24615 ft 542 kts 54°
2026-05-06 18:38 60.17332 8.91769 23784 ft 534 kts 54°
2026-05-06 18:38 60.19351 8.97997 22673 ft 529 kts 53°
2026-05-06 18:39 60.21348 9.04155 21690 ft 521 kts 53°
2026-05-06 18:39 60.23287 9.10153 21431 ft 501 kts 53°
2026-05-06 18:39 60.25127 9.15876 21273 ft 472 kts 53°
2026-05-06 18:40 60.28505 9.26397 20997 ft 423 kts 53°
2026-05-06 18:40 60.30070 9.31268 20767 ft 406 kts 53°
2026-05-06 18:40 60.31568 9.36027 20267 ft 399 kts 57°
2026-05-06 18:40 60.32716 9.41104 19731 ft 397 kts 70°
2026-05-06 18:41 60.33484 9.46428 19150 ft 392 kts 74°
2026-05-06 18:41 60.34204 9.51691 18610 ft 387 kts 74°
2026-05-06 18:41 60.34920 9.56910 18134 ft 383 kts 74°
2026-05-06 18:41 60.35625 9.62069 17540 ft 379 kts 74°
2026-05-06 18:42 60.36319 9.67177 17105 ft 373 kts 74°
2026-05-06 18:42 60.37001 9.72205 16601 ft 369 kts 74°
2026-05-06 18:42 60.37664 9.77114 16153 ft 365 kts 74°
2026-05-06 18:42 60.38324 9.82025 15682 ft 359 kts 74°
2026-05-06 18:43 60.38974 9.86871 15308 ft 354 kts 74°
2026-05-06 18:43 60.39611 9.91612 14961 ft 346 kts 75°
2026-05-06 18:43 60.40235 9.96262 14571 ft 339 kts 75°
2026-05-06 18:43 60.40846 10.00832 14159 ft 334 kts 75°
2026-05-06 18:44 60.41443 10.05332 13794 ft 327 kts 76°
2026-05-06 18:44 60.41789 10.09845 13519 ft 321 kts 84°
2026-05-06 18:44 60.42026 10.14298 13236 ft 316 kts 84°
2026-05-06 18:44 60.42262 10.18726 12945 ft 317 kts 86°
2026-05-06 18:45 60.42495 10.23151 12666 ft 316 kts 86°
2026-05-06 18:45 60.42724 10.27570 12391 ft 315 kts 86°
2026-05-06 18:45 60.42949 10.31961 12117 ft 313 kts 86°
2026-05-06 18:45 60.43171 10.36327 11846 ft 311 kts 86°
2026-05-06 18:46 60.43388 10.40659 11585 ft 308 kts 86°
2026-05-06 18:46 60.43601 10.44959 11318 ft 306 kts 86°
2026-05-06 18:46 60.43814 10.49239 11053 ft 304 kts 86°
2026-05-06 18:46 60.44025 10.53491 10795 ft 302 kts 86°
2026-05-06 18:47 60.44233 10.57714 10533 ft 300 kts 86°
2026-05-06 18:47 60.44436 10.61909 10278 ft 298 kts 86°
2026-05-06 18:47 60.44639 10.66077 10018 ft 297 kts 86°
2026-05-06 18:47 60.44842 10.70269 9530 ft 299 kts 85°
2026-05-06 18:48 60.45042 10.74421 9256 ft 294 kts 85°
2026-05-06 18:48 60.45238 10.78555 8856 ft 294 kts 85°
2026-05-06 18:48 60.45430 10.82657 8500 ft 292 kts 85°
2026-05-06 18:48 60.45620 10.86746 8147 ft 290 kts 85°
2026-05-06 18:49 60.45808 10.90816 7783 ft 289 kts 85°
2026-05-06 18:49 60.45992 10.94870 7433 ft 288 kts 85°
2026-05-06 18:49 60.46173 10.98875 7199 ft 282 kts 85°
2026-05-06 18:49 60.46350 11.02775 7058 ft 273 kts 85°
2026-05-06 18:50 60.46293 11.06532 6929 ft 263 kts 103°
2026-05-06 18:50 60.45648 11.09884 6714 ft 251 kts 123°
2026-05-06 18:50 60.44546 11.12541 6268 ft 245 kts 138°
2026-05-06 18:50 60.43314 11.14928 5717 ft 245 kts 138°
2026-05-06 18:51 60.42080 11.17324 5056 ft 248 kts 138°
2026-05-06 18:51 60.40669 11.19133 4613 ft 239 kts 165°
2026-05-06 18:51 60.39078 11.19302 4334 ft 223 kts 194°
2026-05-06 18:51 60.37623 11.18489 4047 ft 213 kts 198°
2026-05-06 18:52 60.36228 11.17664 3760 ft 205 kts 198°
2026-05-06 18:52 60.34874 11.16871 3479 ft 201 kts 198°
2026-05-06 18:52 60.33551 11.16100 3211 ft 194 kts 198°
2026-05-06 18:52 60.32276 11.15358 2955 ft 188 kts 198°
2026-05-06 18:53 60.31025 11.14630 2682 ft 185 kts 198°
2026-05-06 18:53 60.29806 11.13922 2424 ft 177 kts 198°
2026-05-06 18:53 60.28654 11.13255 2189 ft 169 kts 198°
2026-05-06 18:53 60.27542 11.12609 1951 ft 164 kts 198°
2026-05-06 18:54 60.26465 11.11984 1747 ft 154 kts 198°
2026-05-06 18:54 60.25494 11.11422 1521 ft 139 kts 199°
2026-05-06 18:54 60.24584 11.10895 1332 ft 134 kts 198°
2026-05-06 18:54 60.23690 11.10379 1154 ft 134 kts 198°
2026-05-06 18:55 60.22795 11.09874 963 ft 133 kts 199°
2026-05-06 18:55 60.21903 11.09343 791 ft 134 kts 199°
2026-05-06 18:55 60.21030 11.08834 681 ft 120 kts 197°
2026-05-06 18:55 60.20353 11.08443 677 ft 77 kts 196°
2026-05-06 18:56 60.20033 11.08286 676 ft 27 kts 179°
2026-05-06 18:56 60.19926 11.08337 675 ft 13 kts 146°
2026-05-06 18:56 60.19892 11.08447 673 ft 2 kts 106°
2026-05-06 18:56 60.19891 11.08457 674 ft 1 kts 105°
2026-05-06 18:57 60.19880 11.08530 675 ft 9 kts 106°
2026-05-06 18:57 60.19857 11.08696 679 ft 14 kts 106°
2026-05-06 18:57 60.19827 11.08903 678 ft 17 kts 105°
2026-05-06 18:57 60.19796 11.09122 683 ft 16 kts 105°
2026-05-06 18:58 60.19761 11.09319 682 ft 13 kts 139°
2026-05-06 18:58 60.19661 11.09319 684 ft 15 kts 195°
2026-05-06 18:58 60.19595 11.09282 685 ft 4 kts 196°
2026-05-06 18:58 60.19582 11.09274 685 ft 0 kts 196°